When you browse on this site, cookies collect data to enhance your experience and personalize the content and advertising you see.
Visit our Privacy Policy to learn more. By continuing to use the site, you agree to this use of cookies and data.
  • In Schweiz
  • Länderverzeichnis
  • Für 7 Tage
  • Wassertemperatur
  • Wetterkarte
  • Widgets
  • user-avatar
    Anmelden

    Stündliche Wetter Straßburg

    Heute, 31 Mai, Sonntag

    Zeit Temperatur Niederschläge Wind Luftdruck Luftfeuchtigkeit
    00:00 +11°C° 0 mm 3 m/S 752 mmHg 73%
    01:00 +10°C° 0 mm 2 m/S 752 mmHg 75%
    02:00 +10°C° 0 mm 2 m/S 752 mmHg 77%
    03:00 +9°C° 0 mm 2 m/S 752 mmHg 78%
    04:00 +9°C° 0 mm 2 m/S 752 mmHg 80%
    05:00 +10°C° 0 mm 3 m/S 752 mmHg 77%
    06:00 +11°C° 0 mm 3 m/S 751 mmHg 75%
    07:00 +12°C° 0 mm 3 m/S 751 mmHg 72%
    08:00 +14°C° 0 mm 3 m/S 751 mmHg 66%
    09:00 +15°C° 0 mm 4 m/S 751 mmHg 61%
    10:00 +18°C° 0 mm 4 m/S 751 mmHg 55%
    11:00 +19°C° 0 mm 4 m/S 751 mmHg 53%
    12:00 +19°C° 0 mm 4 m/S 751 mmHg 51%
    13:00 +20°C° 0 mm 4 m/S 751 mmHg 48%
    14:00 +20°C° 0 mm 4 m/S 751 mmHg 48%
    15:00 +21°C° 0 mm 4 m/S 751 mmHg 48%
    16:00 +21°C° 0 mm 4 m/S 751 mmHg 48%
    17:00 +20°C° 0 mm 4 m/S 751 mmHg 54%
    18:00 +19°C° 0 mm 4 m/S 751 mmHg 59%
    19:00 +18°C° 0 mm 4 m/S 751 mmHg 65%
    20:00 +16°C° 0 mm 3 m/S 751 mmHg 68%
    21:00 +14°C° 0 mm 3 m/S 751 mmHg 71%
    22:00 +13°C° 0 mm 3 m/S 752 mmHg 74%
    23:00 +13°C° 0 mm 2 m/S 752 mmHg 76%

    Morgen, 1 Juni, Montag

    Zeit Temperatur Niederschläge Wind Luftdruck Luftfeuchtigkeit
    00:00 +13°C° 0 mm 2 m/S 752 mmHg 78%
    01:00 +12°C° 0 mm 2 m/S 752 mmHg 81%
    02:00 +10°C° 0 mm 2 m/S 752 mmHg 82%
    03:00 +10°C° 0 mm 2 m/S 752 mmHg 83%
    04:00 +10°C° 0 mm 2 m/S 752 mmHg 84%
    05:00 +12°C° 0 mm 2 m/S 752 mmHg 80%
    06:00 +12°C° 0 mm 3 m/S 752 mmHg 77%
    07:00 +13°C° 0 mm 3 m/S 752 mmHg 73%
    08:00 +16°C° 0 mm 3 m/S 751 mmHg 68%
    09:00 +18°C° 0 mm 3 m/S 751 mmHg 63%
    10:00 +20°C° 0 mm 4 m/S 751 mmHg 58%
    11:00 +21°C° 0 mm 4 m/S 751 mmHg 54%
    12:00 +23°C° 0 mm 4 m/S 751 mmHg 50%
    13:00 +25°C° 0 mm 5 m/S 751 mmHg 46%
    14:00 +25°C° 0 mm 5 m/S 751 mmHg 47%
    15:00 +25°C° 0 mm 5 m/S 750 mmHg 47%
    16:00 +25°C° 0 mm 5 m/S 750 mmHg 48%
    17:00 +23°C° 0 mm 4 m/S 750 mmHg 53%
    18:00 +22°C° 0 mm 4 m/S 750 mmHg 58%
    19:00 +21°C° 0 mm 3 m/S 750 mmHg 63%
    20:00 +19°C° 0 mm 3 m/S 750 mmHg 67%
    21:00 +18°C° 0 mm 2 m/S 750 mmHg 70%
    22:00 +16°C° 0 mm 2 m/S 751 mmHg 74%
    23:00 +15°C° 0 mm 2 m/S 751 mmHg 77%

    übermorgen, 2 Juni, Dienstag

    Zeit Temperatur Niederschläge Wind Luftdruck Luftfeuchtigkeit
    00:00 +15°C° 0 mm 2 m/S 750 mmHg 80%
    01:00 +14°C° 0 mm 2 m/S 750 mmHg 83%
    02:00 +13°C° 0 mm 2 m/S 750 mmHg 85%
    03:00 +13°C° 0 mm 2 m/S 750 mmHg 87%
    04:00 +12°C° 0 mm 2 m/S 750 mmHg 89%
    05:00 +13°C° 0 mm 2 m/S 750 mmHg 84%
    06:00 +15°C° 0 mm 2 m/S 750 mmHg 80%
    07:00 +16°C° 0 mm 2 m/S 750 mmHg 76%
    08:00 +18°C° 0 mm 2 m/S 750 mmHg 69%
    09:00 +20°C° 0 mm 2 m/S 749 mmHg 62%
    10:00 +21°C° 0 mm 3 m/S 749 mmHg 55%
    11:00 +24°C° 0 mm 3 m/S 749 mmHg 51%
    12:00 +25°C° 0 mm 3 m/S 748 mmHg 48%
    13:00 +26°C° 0 mm 3 m/S 748 mmHg 44%
    14:00 +26°C° 0 mm 4 m/S 747 mmHg 45%
    15:00 +26°C° 0 mm 4 m/S 747 mmHg 46%
    16:00 +26°C° 0 mm 4 m/S 746 mmHg 47%
    17:00 +25°C° 0 mm 4 m/S 746 mmHg 53%
    18:00 +24°C° 0 mm 3 m/S 746 mmHg 59%
    19:00 +22°C° 0 mm 3 m/S 745 mmHg 65%
    20:00 +20°C° 0 mm 3 m/S 745 mmHg 68%
    21:00 +18°C° 0 mm 2 m/S 746 mmHg 71%
    22:00 +16°C° 0 mm 2 m/S 746 mmHg 74%
    23:00 +15°C° 0 mm 2 m/S 745 mmHg 76%

    3 Juni, Mittwoch

    Zeit Temperatur Niederschläge Wind Luftdruck Luftfeuchtigkeit
    00:00 +15°C° 0 mm 1 m/S 745 mmHg 78%
    01:00 +14°C° 0 mm 1 m/S 745 mmHg 80%
    02:00 +13°C° 0 mm 1 m/S 745 mmHg 81%
    03:00 +13°C° 0 mm 1 m/S 744 mmHg 83%
    04:00 +12°C° 0 mm 1 m/S 744 mmHg 84%
    05:00 +14°C° 0 mm 1 m/S 744 mmHg 80%
    06:00 +15°C° 0 mm 1 m/S 744 mmHg 76%
    07:00 +16°C° 0 mm 1 m/S 744 mmHg 72%
    08:00 +19°C° 0 mm 1 m/S 744 mmHg 65%
    09:00 +21°C° 0 mm 1 m/S 744 mmHg 59%
    10:00 +23°C° 0 mm 1 m/S 744 mmHg 52%
    11:00 +24°C° 0 mm 1 m/S 743 mmHg 49%
    12:00 +25°C° 0 mm 2 m/S 743 mmHg 46%
    13:00 +26°C° 0 mm 2 m/S 743 mmHg 43%
    14:00 +27°C° 0 mm 2 m/S 742 mmHg 43%
    15:00 +27°C° 0 mm 2 m/S 742 mmHg 42%
    16:00 +27°C° 0 mm 2 m/S 742 mmHg 42%
    17:00 +26°C° 0 mm 2 m/S 742 mmHg 49%
    18:00 +25°C° 0 mm 2 m/S 742 mmHg 55%
    19:00 +24°C° 0 mm 2 m/S 742 mmHg 61%
    20:00 +23°C° 0 mm 2 m/S 742 mmHg 66%
    21:00 +21°C° 0 mm 1 m/S 742 mmHg 70%
    22:00 +19°C° 0 mm 1 m/S 743 mmHg 75%
    23:00 +19°C° 0 mm 1 m/S 742 mmHg 76%

    4 Juni, Donnerstag

    Zeit Temperatur Niederschläge Wind Luftdruck Luftfeuchtigkeit
    00:00 +18°C° 0 mm 1 m/S 742 mmHg 78%
    01:00 +18°C° 0 mm 1 m/S 742 mmHg 79%
    02:00 +16°C° 0 mm 1 m/S 742 mmHg 78%
    03:00 +16°C° 0 mm 1 m/S 742 mmHg 78%
    04:00 +16°C° 0 mm 1 m/S 742 mmHg 77%
    05:00 +18°C° 0.2 mm 1 m/S 743 mmHg 77%
    06:00 +19°C° 0.2 mm 1 m/S 743 mmHg 78%
    07:00 +19°C° 0.2 mm 1 m/S 743 mmHg 78%
    08:00 +20°C° 0.1 mm 1 m/S 743 mmHg 76%
    09:00 +21°C° 0.1 mm 1 m/S 743 mmHg 75%
    10:00 +22°C° 0.1 mm 1 m/S 743 mmHg 73%
    11:00 +23°C° 0.1 mm 1 m/S 743 mmHg 72%
    12:00 +23°C° 0.1 mm 1 m/S 743 mmHg 72%
    13:00 +23°C° 0.1 mm 1 m/S 743 mmHg 72%
    14:00 +24°C° 0.3 mm 1 m/S 743 mmHg 69%
    15:00 +25°C° 0.3 mm 1 m/S 742 mmHg 66%
    16:00 +26°C° 0.3 mm 1 m/S 742 mmHg 63%
    17:00 +25°C° 0.5 mm 1 m/S 742 mmHg 68%
    18:00 +24°C° 0.5 mm 1 m/S 742 mmHg 73%
    19:00 +23°C° 0.5 mm 1 m/S 742 mmHg 78%
    20:00 +22°C° 0.3 mm 1 m/S 742 mmHg 81%
    21:00 +21°C° 0.3 mm 1 m/S 742 mmHg 84%
    22:00 +20°C° 0.3 mm 1 m/S 742 mmHg 87%
    23:00 +19°C° 0 mm 1 m/S 742 mmHg 88%

    5 Juni, Freitag

    Zeit Temperatur Niederschläge Wind Luftdruck Luftfeuchtigkeit
    00:00 +19°C° 0 mm 1 m/S 742 mmHg 89%
    01:00 +18°C° 0 mm 1 m/S 742 mmHg 90%
    02:00 +18°C° 0.1 mm 1 m/S 742 mmHg 90%
    03:00 +18°C° 0.1 mm 1 m/S 742 mmHg 91%
    04:00 +18°C° 0.1 mm 1 m/S 742 mmHg 91%
    05:00 +19°C° 0.5 mm 1 m/S 742 mmHg 90%
    06:00 +20°C° 0.5 mm 1 m/S 742 mmHg 89%
    07:00 +21°C° 0.5 mm 1 m/S 742 mmHg 87%
    08:00 +22°C° 0.2 mm 1 m/S 741 mmHg 80%
    09:00 +24°C° 0.2 mm 2 m/S 741 mmHg 73%
    10:00 +25°C° 0.2 mm 2 m/S 741 mmHg 65%
    11:00 +26°C° 0 mm 2 m/S 741 mmHg 62%
    12:00 +27°C° 0 mm 3 m/S 741 mmHg 58%
    13:00 +29°C° 0 mm 3 m/S 741 mmHg 54%
    14:00 +29°C° 0.3 mm 3 m/S 740 mmHg 55%
    15:00 +29°C° 0.3 mm 3 m/S 740 mmHg 57%
    16:00 +29°C° 0.3 mm 4 m/S 740 mmHg 58%
    17:00 +27°C° 0.1 mm 3 m/S 740 mmHg 65%
    18:00 +26°C° 0.1 mm 2 m/S 740 mmHg 71%
    19:00 +25°C° 0.1 mm 1 m/S 741 mmHg 77%
    20:00 +24°C° 0.1 mm 1 m/S 741 mmHg 80%
    21:00 +22°C° 0.1 mm 1 m/S 741 mmHg 83%
    22:00 +19°C° 0.1 mm 0 m/S 742 mmHg 86%
    23:00 +21°C° 0.4 mm 1 m/S 742 mmHg 87%
    Mehr zeigen